Location: Newark
(40.9833°N, 0.0333°W)
Time: 02:53:52
(UTC+00:00)

Transit 2A Rocket - Pass Details

Date: 27 October 2020
Orbit: 588 x 914 km, 66.7° (Epoch: 26 November)

Event Time Altitude Azimuth Distance (km) Brightness Sun altitude
Rises 09:43:55 0° 208° (SSW) 3,525 8.8 29.3°
Reaches altitude 10° 09:46:25 10° 209° (SSW) 2,595 8.2 29.6°
Maximum altitude 09:52:32 88° 296° (WNW) 913 5.9 30.2°
Drops below altitude 10° 09:58:31 10° 30° (NNE) 2,541 7.5 30.8°
Sets 10:00:58 0° 30° (NNE) 3,448 8.1 31.0°
